Tillamook, OR

11:12 PM PDT on October 31, 2014 (GMT -0700)
Tillamook | Change Station
CLOSE
Current Station
Airport
Location: Tillamook,
Elevation: 36 ft
Nearby Weather Stations

Elev 36 ft 45.42 °N, 123.81 °W | Updated 17 minutes ago

Mostly Cloudy
Mostly Cloudy
45 °F
Feels Like 45 °F
N
0
Wind Variable Wind from North

Today
High -- | Low -- °F
--% Chance of Precip.
Yesterday
High -- | Low -- °F
Precip. -- in
7:53 AM 6:03 PM
Waxing Gibbous, 63% visible
Pressure 29.87 in
Visibility 10.0 miles
Clouds Scattered Clouds 100 ft
Dew Point 43 °F
Humidity 93%
Rainfall 0.76 in
Snow Depth Not available.
UV 0 out of 12
Pollen .30 out of 12
Air Quality Not available.
Flu Activity Not available.
METAR KTMK 010555Z AUTO 00000KT 10SM SCT001 07/06 A2987 RMK AO2

More Conditions Fewer Conditions

Pressure 29.87 in
Visibility 10.0 miles
Clouds Scattered Clouds 100 ft
Dew Point 43 °F
Humidity 93%
Rainfall 0.76 in
Snow Depth Not available.
UV 0 out of 12
Pollen .30 out of 12
Air Quality Not available.
Flu Activity Not available.
METAR KTMK 010555Z AUTO 00000KT 10SM SCT001 07/06 A2987 RMK AO2

More Conditions Fewer Conditions

10-Day Weather Forecast

Almanac

Astronomy

Oct. 31, 2014 Rise Set
Actual Time
Civil Twilight
Nautical Twilight
Astronomical Twilight
Moon
Length of Visible Light
Length of Day
Tomorrow will be .
, % of the Moon is Illuminated

Today's Extremes

State Highs State Lows

Community

WunderPhotos

Upload Photos

1,766,866 photos uploaded!

WunderBlogs® & News

Nearby

Air Quality

  Air Quality AQ Index Pollutant
Not available.

Snow Depth

Station Depth Elevation

Earthquake Activity

City Distance Mag. Time & Date
Minimum magnitude displayed is 2.5.

Coastal Water Temperatures

Place Temperature

Nearby Weather Stations